Time,TemperatureF,DewpointF,PressureIn,WindDirection,WindDirectionDegrees,WindSpeedMPH,WindSpeedGustMPH,Humidity,HourlyPrecipIn,Conditions,Clouds,dailyrainin,SoftwareType,DateUTC
2013-03-21 00:00:00,16.1,11.6,29.96,WNW,290,3.0,12.0,82,0.00,,---,0.00,VWS V14.01,2013-03-21 04:00:00,
2013-03-21 00:01:00,16.1,11.6,29.96,WSW,252,6.0,12.0,82,0.00,,---,0.00,VWS V14.01,2013-03-21 04:01:00,
2013-03-21 00:02:00,16.1,11.9,29.96,WNW,285,2.0,6.0,83,0.00,,---,0.00,VWS V14.01,2013-03-21 04:02:00,
2013-03-21 00:07:00,16.1,11.9,29.96,West,273,7.0,10.0,83,0.00,,---,0.00,VWS V14.01,2013-03-21 04:07:00,
2013-03-21 00:12:00,16.0,11.8,29.96,SW,231,3.0,10.0,83,0.00,,---,0.00,VWS V14.01,2013-03-21 04:12:00,
2013-03-21 00:17:00,15.9,11.7,29.96,WSW,252,3.0,10.0,83,0.00,,---,0.00,VWS V14.01,2013-03-21 04:17:00,
2013-03-21 00:22:00,15.7,11.5,29.95,WSW,257,2.0,10.0,83,0.00,,---,0.00,VWS V14.01,2013-03-21 04:22:00,
2013-03-21 00:27:00,15.7,11.7,29.95,West,276,6.0,10.0,84,0.00,,---,0.00,VWS V14.01,2013-03-21 04:27:00,
2013-03-21 00:32:00,15.6,11.6,29.95,West,280,6.0,10.0,84,0.00,,---,0.00,VWS V14.01,2013-03-21 04:32:00,
2013-03-21 00:37:00,15.6,11.6,29.95,WNW,294,3.0,10.0,84,0.00,,---,0.00,VWS V14.01,2013-03-21 04:37:00,
2013-03-21 00:42:00,15.4,11.4,29.95,West,260,1.0,10.0,84,0.00,,---,0.00,VWS V14.01,2013-03-21 04:42:00,
2013-03-21 00:47:00,15.3,11.6,29.95,SW,236,5.0,10.0,85,0.00,,---,0.00,VWS V14.01,2013-03-21 04:47:00,
2013-03-21 00:53:00,15.4,11.7,29.95,West,264,4.0,10.0,85,0.00,,---,0.00,VWS V14.01,2013-03-21 04:53:00,
2013-03-21 00:58:00,15.3,11.6,29.95,WNW,284,1.0,10.0,85,0.00,,---,0.00,VWS V14.01,2013-03-21 04:58:00,
2013-03-21 01:03:00,15.2,11.8,29.95,West,280,2.0,4.0,86,0.00,,---,0.00,VWS V14.01,2013-03-21 05:03:00,
2013-03-21 01:08:00,15.2,11.8,29.95,West,281,2.0,7.0,86,0.00,,---,0.00,VWS V14.01,2013-03-21 05:08:00,
2013-03-21 01:13:00,15.2,11.8,29.95,West,271,5.0,7.0,86,0.00,,---,0.00,VWS V14.01,2013-03-21 05:13:00,
2013-03-21 01:18:00,15.1,11.7,29.95,West,276,3.0,7.0,86,0.00,,---,0.00,VWS V14.01,2013-03-21 05:18:00,
2013-03-21 01:23:00,15.1,11.7,29.95,West,274,5.0,7.0,86,0.00,,---,0.00,VWS V14.01,2013-03-21 05:23:00,
2013-03-21 01:28:00,15.0,11.6,29.95,West,267,2.0,7.0,86,0.00,,---,0.00,VWS V14.01,2013-03-21 05:28:00,
2013-03-21 01:33:00,14.9,11.5,29.94,West,276,4.0,7.0,86,0.00,,---,0.00,VWS V14.01,2013-03-21 05:33:00,
2013-03-21 01:38:00,14.8,11.6,29.94,West,260,4.0,7.0,87,0.00,,---,0.00,VWS V14.01,2013-03-21 05:38:00,
2013-03-21 01:43:00,14.7,11.5,29.94,West,276,3.0,7.0,87,0.00,,---,0.00,VWS V14.01,2013-03-21 05:43:00,
2013-03-21 01:49:00,14.7,11.5,29.94,West,272,4.0,7.0,87,0.00,,---,0.00,VWS V14.01,2013-03-21 05:49:00,
2013-03-21 01:54:00,14.6,11.4,29.94,WSW,250,4.0,8.0,87,0.00,,---,0.00,VWS V14.01,2013-03-21 05:54:00,
2013-03-21 01:59:00,14.6,11.4,29.94,West,274,3.0,8.0,87,0.00,,---,0.00,VWS V14.01,2013-03-21 05:59:00,
2013-03-21 02:04:00,14.5,11.3,29.94,West,262,5.0,6.0,87,0.00,,---,0.00,VWS V14.01,2013-03-21 06:04:00,
2013-03-21 02:09:00,14.6,11.4,29.94,WSW,257,4.0,7.0,87,0.00,,---,0.00,VWS V14.01,2013-03-21 06:09:00,
2013-03-21 02:14:00,14.6,11.4,29.94,WSW,253,2.0,8.0,87,0.00,,---,0.00,VWS V14.01,2013-03-21 06:14:00,
2013-03-21 02:19:00,14.5,11.3,29.94,West,263,3.0,8.0,87,0.00,,---,0.00,VWS V14.01,2013-03-21 06:19:00,
2013-03-21 02:24:00,14.6,11.4,29.94,WSW,253,4.0,8.0,87,0.00,,---,0.00,VWS V14.01,2013-03-21 06:24:00,
2013-03-21 02:29:00,14.6,11.4,29.94,WSW,256,3.0,8.0,87,0.00,,---,0.00,VWS V14.01,2013-03-21 06:29:00,
2013-03-21 02:34:00,14.6,11.4,29.94,West,268,3.0,8.0,87,0.00,,---,0.00,VWS V14.01,2013-03-21 06:34:00,
2013-03-21 02:40:00,14.7,11.5,29.94,West,259,5.0,8.0,87,0.00,,---,0.00,VWS V14.01,2013-03-21 06:40:00,
2013-03-21 02:45:00,14.7,11.5,29.94,West,272,3.0,8.0,87,0.00,,---,0.00,VWS V14.01,2013-03-21 06:45:00,
2013-03-21 02:50:00,14.9,11.7,29.94,WNW,284,2.0,8.0,87,0.00,,---,0.00,VWS V14.01,2013-03-21 06:50:00,
2013-03-21 02:55:00,14.9,11.7,29.94,West,262,5.0,8.0,87,0.00,,---,0.00,VWS V14.01,2013-03-21 06:55:00,
2013-03-21 03:00:00,15.1,11.9,29.93,West,269,3.0,8.0,87,0.00,,---,0.00,VWS V14.01,2013-03-21 07:00:00,
2013-03-21 03:05:00,15.1,11.9,29.93,West,259,4.0,5.0,87,0.00,,---,0.00,VWS V14.01,2013-03-21 07:05:00,
2013-03-21 03:10:00,15.2,12.0,29.93,WSW,255,5.0,8.0,87,0.00,,---,0.00,VWS V14.01,2013-03-21 07:10:00,
2013-03-21 03:15:00,15.3,12.1,29.93,West,264,3.0,8.0,87,0.00,,---,0.00,VWS V14.01,2013-03-21 07:15:00,
2013-03-21 03:20:00,15.3,12.1,29.93,WSW,255,8.0,8.0,87,0.00,,---,0.00,VWS V14.01,2013-03-21 07:20:00,
2013-03-21 03:25:00,15.4,12.2,29.93,West,266,6.0,8.0,87,0.00,,---,0.00,VWS V14.01,2013-03-21 07:25:00,
2013-03-21 03:30:00,15.5,12.3,29.93,SW,226,4.0,8.0,87,0.00,,---,0.00,VWS V14.01,2013-03-21 07:30:00,
2013-03-21 03:35:00,15.6,12.4,29.92,WNW,286,4.0,8.0,87,0.00,,---,0.00,VWS V14.01,2013-03-21 07:35:00,
2013-03-21 03:40:00,15.7,12.5,29.92,WSW,242,2.0,8.0,87,0.00,,---,0.00,VWS V14.01,2013-03-21 07:40:00,
2013-03-21 03:45:00,15.8,12.6,29.92,West,260,2.0,8.0,87,0.00,,---,0.00,VWS V14.01,2013-03-21 07:45:00,
2013-03-21 03:51:00,15.9,12.7,29.92,WSW,238,5.0,8.0,87,0.00,,---,0.00,VWS V14.01,2013-03-21 07:51:00,
2013-03-21 03:56:00,16.0,12.8,29.92,WSW,248,5.0,8.0,87,0.00,,---,0.00,VWS V14.01,2013-03-21 07:56:00,
2013-03-21 04:01:00,16.0,12.8,29.92,WSW,239,4.0,8.0,87,0.00,,---,0.00,VWS V14.01,2013-03-21 08:01:00,
2013-03-21 04:06:00,16.1,12.9,29.92,West,270,3.0,7.0,87,0.00,,---,0.00,VWS V14.01,2013-03-21 08:06:00,
2013-03-21 04:11:00,16.1,12.9,29.92,WSW,248,4.0,7.0,87,0.00,,---,0.00,VWS V14.01,2013-03-21 08:11:00,
2013-03-21 04:16:00,16.2,13.0,29.92,West,266,5.0,7.0,87,0.00,,---,0.00,VWS V14.01,2013-03-21 08:16:00,
2013-03-21 04:21:00,16.4,13.5,29.91,West,276,7.0,9.0,88,0.00,,---,0.00,VWS V14.01,2013-03-21 08:21:00,
2013-03-21 04:27:00,16.5,13.6,29.91,WNW,283,3.0,9.0,88,0.00,,---,0.00,VWS V14.01,2013-03-21 08:27:00,
2013-03-21 04:32:00,16.6,13.7,29.91,West,266,9.0,9.0,88,0.00,,---,0.00,VWS V14.01,2013-03-21 08:32:00,
2013-03-21 04:37:00,16.7,13.8,29.91,West,276,5.0,9.0,88,0.00,,---,0.00,VWS V14.01,2013-03-21 08:37:00,
2013-03-21 04:42:00,16.7,13.8,29.90,WSW,243,5.0,9.0,88,0.00,,---,0.00,VWS V14.01,2013-03-21 08:42:00,
2013-03-21 04:48:00,16.7,13.8,29.90,WSW,257,2.0,9.0,88,0.00,,---,0.00,VWS V14.01,2013-03-21 08:48:00,
2013-03-21 04:53:00,16.8,13.9,29.90,West,280,4.0,9.0,88,0.00,,---,0.00,VWS V14.01,2013-03-21 08:53:00,
2013-03-21 04:58:00,16.8,13.9,29.90,WSW,249,7.0,9.0,88,0.00,,---,0.00,VWS V14.01,2013-03-21 08:58:00,
2013-03-21 05:03:00,16.8,13.9,29.90,WSW,243,4.0,6.0,88,0.00,,---,0.00,VWS V14.01,2013-03-21 09:03:00,
2013-03-21 05:08:00,16.9,14.0,29.90,West,267,6.0,8.0,88,0.00,,---,0.00,VWS V14.01,2013-03-21 09:08:00,
2013-03-21 05:13:00,16.9,14.0,29.90,West,269,6.0,8.0,88,0.00,,---,0.00,VWS V14.01,2013-03-21 09:13:00,
2013-03-21 05:18:00,16.9,14.0,29.90,West,266,5.0,10.0,88,0.00,,---,0.00,VWS V14.01,2013-03-21 09:18:00,
2013-03-21 05:23:00,17.0,14.1,29.90,West,278,3.0,10.0,88,0.00,,---,0.00,VWS V14.01,2013-03-21 09:23:00,
2013-03-21 05:29:00,17.0,14.3,29.90,West,259,7.0,10.0,89,0.00,,---,0.00,VWS V14.01,2013-03-21 09:29:00,
2013-03-21 05:34:00,16.9,14.2,29.90,WSW,243,5.0,10.0,89,0.00,,---,0.00,VWS V14.01,2013-03-21 09:34:00,
2013-03-21 05:39:00,16.9,14.2,29.90,West,274,7.0,10.0,89,0.00,,---,0.00,VWS V14.01,2013-03-21 09:39:00,
2013-03-21 05:44:00,16.9,14.2,29.90,West,262,4.0,10.0,89,0.00,,---,0.00,VWS V14.01,2013-03-21 09:44:00,
2013-03-21 05:49:00,16.9,14.2,29.90,West,280,5.0,10.0,89,0.00,,---,0.00,VWS V14.01,2013-03-21 09:49:00,
2013-03-21 05:54:00,16.9,14.2,29.90,West,260,3.0,10.0,89,0.00,,---,0.00,VWS V14.01,2013-03-21 09:54:00,
2013-03-21 05:59:00,17.0,14.3,29.90,WSW,255,5.0,10.0,89,0.00,,---,0.00,VWS V14.01,2013-03-21 09:59:00,
2013-03-21 06:04:00,16.9,14.2,29.90,West,259,6.0,10.0,89,0.00,,---,0.00,VWS V14.01,2013-03-21 10:04:00,
2013-03-21 06:09:00,17.0,14.3,29.90,WSW,254,5.0,10.0,89,0.00,,---,0.00,VWS V14.01,2013-03-21 10:09:00,
2013-03-21 06:15:00,17.1,14.4,29.89,WSW,240,8.0,10.0,89,0.00,,---,0.00,VWS V14.01,2013-03-21 10:15:00,
2013-03-21 06:20:00,17.1,14.4,29.89,West,262,4.0,10.0,89,0.00,,---,0.00,VWS V14.01,2013-03-21 10:20:00,
2013-03-21 06:25:00,17.2,14.5,29.89,WSW,256,4.0,10.0,89,0.00,,---,0.00,VWS V14.01,2013-03-21 10:25:00,
2013-03-21 06:30:00,17.2,14.5,29.90,West,281,5.0,10.0,89,0.00,,---,0.00,VWS V14.01,2013-03-21 10:30:00,
2013-03-21 06:35:00,17.3,14.6,29.89,West,280,8.0,10.0,89,0.00,,---,0.00,VWS V14.01,2013-03-21 10:35:00,
2013-03-21 06:40:00,17.4,14.7,29.89,West,266,6.0,12.0,89,0.00,,---,0.00,VWS V14.01,2013-03-21 10:40:00,
2013-03-21 06:45:00,17.5,14.8,29.89,West,259,8.0,12.0,89,0.00,,---,0.00,VWS V14.01,2013-03-21 10:45:00,
2013-03-21 06:51:00,17.4,14.7,29.89,West,259,5.0,12.0,89,0.00,,---,0.00,VWS V14.01,2013-03-21 10:51:00,
2013-03-21 06:56:00,17.4,14.7,29.89,West,260,8.0,12.0,89,0.00,,---,0.00,VWS V14.01,2013-03-21 10:56:00,
2013-03-21 07:01:00,17.5,14.8,29.89,WSW,246,5.0,12.0,89,0.00,,---,0.00,VWS V14.01,2013-03-21 11:01:00,
2013-03-21 07:06:00,17.5,14.8,29.89,West,266,8.0,11.0,89,0.00,,---,0.00,VWS V14.01,2013-03-21 11:06:00,
2013-03-21 07:11:00,17.5,14.8,29.89,West,274,3.0,11.0,89,0.00,,---,0.00,VWS V14.01,2013-03-21 11:11:00,
2013-03-21 07:17:00,17.6,14.9,29.89,West,277,4.0,11.0,89,0.00,,---,0.00,VWS V14.01,2013-03-21 11:17:00,
2013-03-21 07:22:00,17.6,14.9,29.89,West,269,3.0,11.0,89,0.00,,---,0.00,VWS V14.01,2013-03-21 11:22:00,
2013-03-21 07:27:00,17.7,15.0,29.89,West,268,7.0,11.0,89,0.00,,---,0.00,VWS V14.01,2013-03-21 11:27:00,
2013-03-21 07:32:00,17.8,15.1,29.89,WSW,250,7.0,11.0,89,0.00,,---,0.00,VWS V14.01,2013-03-21 11:32:00,
2013-03-21 07:37:00,17.8,15.1,29.89,WSW,248,3.0,11.0,89,0.00,,---,0.00,VWS V14.01,2013-03-21 11:37:00,
2013-03-21 07:42:00,17.9,15.2,29.89,West,262,4.0,11.0,89,0.00,,---,0.00,VWS V14.01,2013-03-21 11:42:00,
2013-03-21 07:47:00,17.9,15.2,29.89,WSW,250,3.0,12.0,89,0.00,,---,0.00,VWS V14.01,2013-03-21 11:47:00,
2013-03-21 07:52:00,17.9,15.2,29.89,West,274,4.0,12.0,89,0.00,,---,0.00,VWS V14.01,2013-03-21 11:52:00,
2013-03-21 07:58:00,18.0,15.3,29.89,West,262,3.0,12.0,89,0.00,,---,0.00,VWS V14.01,2013-03-21 11:58:00,
2013-03-21 08:03:00,18.1,15.7,29.89,WSW,253,5.0,7.0,90,0.00,,---,0.00,VWS V14.01,2013-03-21 12:03:00,
2013-03-21 08:08:00,18.2,15.8,29.89,West,262,6.0,9.0,90,0.00,,---,0.00,VWS V14.01,2013-03-21 12:08:00,
2013-03-21 08:13:00,18.3,15.9,29.89,West,272,5.0,11.0,90,0.00,,---,0.00,VWS V14.01,2013-03-21 12:13:00,
2013-03-21 08:18:00,18.4,16.0,29.88,WSW,255,6.0,11.0,90,0.00,,---,0.00,VWS V14.01,2013-03-21 12:18:00,
2013-03-21 08:23:00,18.5,16.1,29.89,West,267,5.0,11.0,90,0.00,,---,0.00,VWS V14.01,2013-03-21 12:23:00,
2013-03-21 08:28:00,18.7,16.3,29.88,West,262,7.0,11.0,90,0.00,,---,0.00,VWS V14.01,2013-03-21 12:28:00,
2013-03-21 08:33:00,18.8,16.4,29.88,West,270,3.0,11.0,90,0.00,,---,0.00,VWS V14.01,2013-03-21 12:33:00,
2013-03-21 08:38:00,19.0,16.6,29.88,West,267,4.0,11.0,90,0.00,,---,0.00,VWS V14.01,2013-03-21 12:38:00,
2013-03-21 08:44:00,19.1,16.7,29.88,WNW,290,7.0,11.0,90,0.00,,---,0.00,VWS V14.01,2013-03-21 12:44:00,
2013-03-21 08:49:00,19.2,16.8,29.88,West,259,8.0,11.0,90,0.00,,---,0.00,VWS V14.01,2013-03-21 12:49:00,
2013-03-21 08:54:00,19.3,16.9,29.88,West,276,6.0,11.0,90,0.00,,---,0.00,VWS V14.01,2013-03-21 12:54:00,
2013-03-21 08:59:00,19.5,17.0,29.88,West,271,7.0,11.0,90,0.00,,---,0.00,VWS V14.01,2013-03-21 12:59:00,
2013-03-21 09:04:00,19.7,17.2,29.88,WSW,245,6.0,7.0,90,0.00,,---,0.00,VWS V14.01,2013-03-21 13:04:00,
2013-03-21 09:09:00,19.9,17.5,29.89,WNW,285,6.0,10.0,90,0.00,,---,0.00,VWS V14.01,2013-03-21 13:09:00,
2013-03-21 09:14:00,20.1,17.6,29.89,West,266,8.0,11.0,90,0.00,,---,0.00,VWS V14.01,2013-03-21 13:14:00,
2013-03-21 09:19:00,20.2,17.7,29.89,WSW,256,8.0,11.0,90,0.00,,---,0.00,VWS V14.01,2013-03-21 13:19:00,
2013-03-21 09:24:00,20.5,18.0,29.89,West,264,4.0,12.0,90,0.00,,---,0.00,VWS V14.01,2013-03-21 13:24:00,
2013-03-21 09:29:00,20.7,18.0,29.89,WSW,256,6.0,12.0,89,0.00,,---,0.00,VWS V14.01,2013-03-21 13:29:00,
2013-03-21 09:34:00,20.9,18.2,29.89,NNW,336,2.0,12.0,89,0.00,,---,0.00,VWS V14.01,2013-03-21 13:34:00,
2013-03-21 09:40:00,21.2,18.5,29.89,West,281,4.0,12.0,89,0.00,,---,0.00,VWS V14.01,2013-03-21 13:40:00,
2013-03-21 09:45:00,21.3,18.6,29.90,WSW,246,6.0,13.0,89,0.00,,---,0.00,VWS V14.01,2013-03-21 13:45:00,
2013-03-21 09:50:00,21.4,18.4,29.90,NW,322,5.0,13.0,88,0.00,,---,0.00,VWS V14.01,2013-03-21 13:50:00,
2013-03-21 09:55:00,21.5,18.5,29.90,West,266,5.0,13.0,88,0.00,,---,0.00,VWS V14.01,2013-03-21 13:55:00,
2013-03-21 10:00:00,21.7,18.7,29.90,NW,318,6.0,13.0,88,0.00,,---,0.00,VWS V14.01,2013-03-21 14:00:00,
2013-03-21 10:05:00,21.8,18.8,29.90,WNW,286,3.0,9.0,88,0.00,,---,0.00,VWS V14.01,2013-03-21 14:05:00,
2013-03-21 10:10:00,22.1,19.1,29.90,West,269,4.0,11.0,88,0.00,,---,0.00,VWS V14.01,2013-03-21 14:10:00,
2013-03-21 10:15:00,22.3,19.3,29.90,NW,318,4.0,12.0,88,0.00,,---,0.00,VWS V14.01,2013-03-21 14:15:00,
2013-03-21 10:20:00,22.4,19.1,29.90,WNW,291,9.0,12.0,87,0.00,,---,0.00,VWS V14.01,2013-03-21 14:20:00,
2013-03-21 10:25:00,22.5,19.2,29.90,West,271,5.0,12.0,87,0.00,,---,0.00,VWS V14.01,2013-03-21 14:25:00,
2013-03-21 10:30:00,22.5,19.2,29.90,West,276,7.0,12.0,87,0.00,,---,0.00,VWS V14.01,2013-03-21 14:30:00,
2013-03-21 10:36:00,22.6,19.3,29.90,WNW,288,5.0,12.0,87,0.00,,---,0.00,VWS V14.01,2013-03-21 14:36:00,
2013-03-21 10:41:00,22.7,19.4,29.91,WNW,286,8.0,12.0,87,0.00,,---,0.00,VWS V14.01,2013-03-21 14:41:00,
2013-03-21 10:46:00,22.7,19.4,29.91,WNW,290,3.0,12.0,87,0.00,,---,0.00,VWS V14.01,2013-03-21 14:46:00,
2013-03-21 10:51:00,22.8,19.5,29.91,WNW,283,4.0,12.0,87,0.00,,---,0.00,VWS V14.01,2013-03-21 14:51:00,
2013-03-21 10:56:00,23.0,19.7,29.91,West,263,4.0,12.0,87,0.00,,---,0.00,VWS V14.01,2013-03-21 14:56:00,
2013-03-21 11:01:00,23.3,20.3,29.91,WNW,297,6.0,12.0,88,0.00,,---,0.00,VWS V14.01,2013-03-21 15:01:00,
2013-03-21 11:06:00,23.5,20.2,29.91,NW,304,4.0,13.0,87,0.00,,---,0.00,VWS V14.01,2013-03-21 15:06:00,
2013-03-21 11:12:00,23.7,20.4,29.91,WNW,297,5.0,13.0,87,0.00,,---,0.00,VWS V14.01,2013-03-21 15:12:00,
2013-03-21 11:17:00,23.9,20.6,29.91,NNW,338,7.0,13.0,87,0.00,,---,0.00,VWS V14.01,2013-03-21 15:17:00,
2013-03-21 11:22:00,24.1,20.5,29.91,West,281,9.0,13.0,86,0.00,,---,0.00,VWS V14.01,2013-03-21 15:22:00,
2013-03-21 11:27:00,24.4,20.8,29.91,West,270,5.0,13.0,86,0.00,,---,0.00,VWS V14.01,2013-03-21 15:27:00,
2013-03-21 11:32:00,24.6,21.0,29.91,WNW,298,7.0,13.0,86,0.00,,---,0.00,VWS V14.01,2013-03-21 15:32:00,
2013-03-21 11:37:00,24.8,21.2,29.91,WNW,300,3.0,13.0,86,0.00,,---,0.00,VWS V14.01,2013-03-21 15:37:00,
2013-03-21 11:42:00,25.4,21.8,29.92,NNW,328,6.0,13.0,86,0.00,,---,0.00,VWS V14.01,2013-03-21 15:42:00,
2013-03-21 11:47:00,25.5,21.6,29.92,NW,323,5.0,13.0,85,0.00,,---,0.00,VWS V14.01,2013-03-21 15:47:00,
2013-03-21 11:52:00,25.5,21.4,29.91,NW,322,6.0,13.0,84,0.00,,---,0.00,VWS V14.01,2013-03-21 15:52:00,
2013-03-21 11:57:00,26.0,21.8,29.91,NW,304,4.0,13.0,84,0.00,,---,0.00,VWS V14.01,2013-03-21 15:57:00,
2013-03-21 12:02:00,26.0,21.6,29.91,WNW,294,7.0,10.0,83,0.00,,---,0.00,VWS V14.01,2013-03-21 16:02:00,
2013-03-21 12:07:00,26.2,22.0,29.91,WNW,300,9.0,11.0,84,0.00,,---,0.00,VWS V14.01,2013-03-21 16:07:00,
2013-03-21 12:12:00,26.3,21.9,29.92,WNW,300,9.0,14.0,83,0.00,,---,0.00,VWS V14.01,2013-03-21 16:12:00,
2013-03-21 12:18:00,26.3,22.1,29.92,West,262,8.0,14.0,84,0.00,,---,0.00,VWS V14.01,2013-03-21 16:18:00,
2013-03-21 12:23:00,26.3,22.1,29.92,WNW,283,4.0,14.0,84,0.00,,---,0.00,VWS V14.01,2013-03-21 16:23:00,
2013-03-21 12:28:00,26.7,22.5,29.92,NNW,344,9.0,14.0,84,0.00,,---,0.00,VWS V14.01,2013-03-21 16:28:00,
2013-03-21 12:33:00,26.6,22.1,29.91,WNW,287,6.0,14.0,83,0.00,,---,0.00,VWS V14.01,2013-03-21 16:33:00,
2013-03-21 12:38:00,26.7,22.2,29.91,NW,314,10.0,15.0,83,0.00,,---,0.00,VWS V14.01,2013-03-21 16:38:00,
2013-03-21 12:43:00,27.0,22.5,29.91,West,259,8.0,15.0,83,0.00,,---,0.00,VWS V14.01,2013-03-21 16:43:00,
2013-03-21 12:48:00,27.5,23.0,29.91,WNW,300,7.0,15.0,83,0.00,,---,0.00,VWS V14.01,2013-03-21 16:48:00,
2013-03-21 12:53:00,27.5,22.5,29.91,West,270,8.0,15.0,81,0.00,,---,0.00,VWS V14.01,2013-03-21 16:53:00,
2013-03-21 12:58:00,27.7,22.6,29.91,WNW,297,4.0,17.0,81,0.00,,---,0.00,VWS V14.01,2013-03-21 16:58:00,
2013-03-21 13:03:00,27.8,22.4,29.90,WNW,291,4.0,10.0,80,0.00,,---,0.00,VWS V14.01,2013-03-21 17:03:00,
2013-03-21 13:09:00,28.2,23.1,29.91,West,278,5.0,11.0,81,0.00,,---,0.00,VWS V14.01,2013-03-21 17:09:00,
2013-03-21 13:14:00,28.3,22.6,29.91,WNW,293,7.0,12.0,79,0.00,,---,0.00,VWS V14.01,2013-03-21 17:14:00,
2013-03-21 13:19:00,28.5,22.8,29.90,WNW,296,5.0,13.0,79,0.00,,---,0.00,VWS V14.01,2013-03-21 17:19:00,
2013-03-21 13:24:00,28.9,23.2,29.90,West,262,4.0,14.0,79,0.00,,---,0.00,VWS V14.01,2013-03-21 17:24:00,
2013-03-21 13:29:00,28.9,22.6,29.91,WNW,291,8.0,14.0,77,0.00,,---,0.00,VWS V14.01,2013-03-21 17:29:00,
2013-03-21 13:34:00,28.6,22.3,29.91,WNW,282,8.0,18.0,77,0.00,,---,0.00,VWS V14.01,2013-03-21 17:34:00,
2013-03-21 13:39:00,28.7,22.4,29.91,West,276,7.0,18.0,77,0.00,,---,0.00,VWS V14.01,2013-03-21 17:39:00,
2013-03-21 13:44:00,28.9,22.6,29.91,WNW,287,6.0,18.0,77,0.00,,---,0.00,VWS V14.01,2013-03-21 17:44:00,
2013-03-21 13:49:00,28.7,21.5,29.91,WNW,300,10.0,18.0,74,0.00,,---,0.00,VWS V14.01,2013-03-21 17:49:00,
2013-03-21 13:54:00,28.8,22.2,29.91,West,278,9.0,18.0,76,0.00,,---,0.00,VWS V14.01,2013-03-21 17:54:00,
2013-03-21 14:00:00,28.8,21.9,29.91,WNW,292,6.0,18.0,75,0.00,,---,0.00,VWS V14.01,2013-03-21 18:00:00,
2013-03-21 14:05:00,28.9,21.7,29.91,NNW,342,4.0,10.0,74,0.00,,---,0.00,VWS V14.01,2013-03-21 18:05:00,
2013-03-21 14:10:00,28.8,21.6,29.90,West,273,3.0,12.0,74,0.00,,---,0.00,VWS V14.01,2013-03-21 18:10:00,
2013-03-21 14:15:00,29.0,21.8,29.90,West,266,5.0,12.0,74,0.00,,---,0.00,VWS V14.01,2013-03-21 18:15:00,
2013-03-21 14:20:00,29.1,22.2,29.91,West,276,11.0,12.0,75,0.00,,---,0.00,VWS V14.01,2013-03-21 18:20:00,
2013-03-21 14:25:00,29.0,22.1,29.91,WNW,291,3.0,16.0,75,0.00,,---,0.00,VWS V14.01,2013-03-21 18:25:00,
2013-03-21 14:30:00,29.1,22.2,29.91,WNW,290,10.0,16.0,75,0.00,,---,0.00,VWS V14.01,2013-03-21 18:30:00,
2013-03-21 14:35:00,29.0,21.8,29.91,NW,304,6.0,16.0,74,0.00,,---,0.00,VWS V14.01,2013-03-21 18:35:00,
2013-03-21 14:40:00,29.1,21.9,29.91,West,262,5.0,16.0,74,0.00,,---,0.00,VWS V14.01,2013-03-21 18:40:00,
2013-03-21 14:45:00,29.0,21.8,29.90,WNW,284,5.0,16.0,74,0.00,,---,0.00,VWS V14.01,2013-03-21 18:45:00,
2013-03-21 14:50:00,28.9,21.7,29.91,NNW,340,10.0,16.0,74,0.00,,---,0.00,VWS V14.01,2013-03-21 18:50:00,
2013-03-21 14:55:00,28.9,22.3,29.91,WNW,296,2.0,16.0,76,0.00,,---,0.00,VWS V14.01,2013-03-21 18:55:00,
2013-03-21 15:00:00,29.0,22.4,29.91,WNW,294,4.0,16.0,76,0.00,,---,0.00,VWS V14.01,2013-03-21 19:00:00,
2013-03-21 15:06:00,29.0,22.4,29.91,West,271,6.0,11.0,76,0.00,,---,0.00,VWS V14.01,2013-03-21 19:06:00,
2013-03-21 15:11:00,28.9,22.3,29.91,WNW,294,8.0,15.0,76,0.00,,---,0.00,VWS V14.01,2013-03-21 19:11:00,
2013-03-21 15:16:00,28.9,22.3,29.90,WSW,255,15.0,15.0,76,0.00,,---,0.00,VWS V14.01,2013-03-21 19:16:00,
2013-03-21 15:21:00,29.0,22.1,29.90,West,260,3.0,15.0,75,0.00,,---,0.00,VWS V14.01,2013-03-21 19:21:00,
2013-03-21 15:26:00,29.1,22.2,29.91,WNW,283,7.0,17.0,75,0.00,,---,0.00,VWS V14.01,2013-03-21 19:26:00,
2013-03-21 15:32:00,29.0,22.1,29.91,WSW,248,5.0,17.0,75,0.00,,---,0.00,VWS V14.01,2013-03-21 19:32:00,
2013-03-21 15:37:00,29.1,22.2,29.91,WNW,290,7.0,17.0,75,0.00,,---,0.00,VWS V14.01,2013-03-21 19:37:00,
2013-03-21 15:42:00,29.1,22.2,29.91,WNW,295,7.0,17.0,75,0.00,,---,0.00,VWS V14.01,2013-03-21 19:42:00,
2013-03-21 15:47:00,29.0,22.4,29.91,WNW,283,3.0,17.0,76,0.00,,---,0.00,VWS V14.01,2013-03-21 19:47:00,
2013-03-21 15:52:00,29.2,22.6,29.91,West,281,3.0,17.0,76,0.00,,---,0.00,VWS V14.01,2013-03-21 19:52:00,
2013-03-21 15:57:00,29.2,22.6,29.91,NW,326,11.0,17.0,76,0.00,,---,0.00,VWS V14.01,2013-03-21 19:57:00,
2013-03-21 16:02:00,29.2,22.6,29.91,NW,312,13.0,14.0,76,0.00,,---,0.00,VWS V14.01,2013-03-21 20:02:00,
2013-03-21 16:08:00,29.3,23.0,29.91,West,271,3.0,14.0,77,0.00,,---,0.00,VWS V14.01,2013-03-21 20:08:00,
2013-03-21 16:13:00,29.3,23.6,29.91,WNW,286,11.0,16.0,79,0.00,,---,0.00,VWS V14.01,2013-03-21 20:13:00,
2013-03-21 16:18:00,29.2,23.5,29.91,WNW,287,3.0,16.0,79,0.00,,---,0.00,VWS V14.01,2013-03-21 20:18:00,
2013-03-21 16:23:00,29.0,23.3,29.91,West,266,10.0,16.0,79,0.00,,---,0.00,VWS V14.01,2013-03-21 20:23:00,
2013-03-21 16:28:00,29.0,23.6,29.91,West,281,6.0,16.0,80,0.00,,---,0.00,VWS V14.01,2013-03-21 20:28:00,
2013-03-21 16:33:00,29.1,23.4,29.91,WNW,293,7.0,16.0,79,0.00,,---,0.00,VWS V14.01,2013-03-21 20:33:00,
2013-03-21 16:38:00,29.4,23.7,29.91,WNW,290,9.0,17.0,79,0.00,,---,0.00,VWS V14.01,2013-03-21 20:38:00,
2013-03-21 16:43:00,29.4,24.0,29.91,West,262,15.0,17.0,80,0.00,,---,0.00,VWS V14.01,2013-03-21 20:43:00,
2013-03-21 16:48:00,29.5,24.1,29.91,WNW,287,7.0,18.0,80,0.00,,---,0.00,VWS V14.01,2013-03-21 20:48:00,
2013-03-21 16:53:00,29.8,24.4,29.91,WNW,290,9.0,18.0,80,0.00,,---,0.00,VWS V14.01,2013-03-21 20:53:00,
2013-03-21 16:58:00,29.5,24.1,29.91,WNW,300,8.0,18.0,80,0.00,,---,0.00,VWS V14.01,2013-03-21 20:58:00,
2013-03-21 17:04:00,29.3,24.2,29.91,NW,311,4.0,10.0,81,0.00,,---,0.00,VWS V14.01,2013-03-21 21:04:00,
2013-03-21 17:09:00,29.3,24.5,29.91,West,276,4.0,13.0,82,0.00,,---,0.00,VWS V14.01,2013-03-21 21:09:00,
2013-03-21 17:14:00,29.1,24.3,29.91,West,262,14.0,17.0,82,0.00,,---,0.00,VWS V14.01,2013-03-21 21:14:00,
2013-03-21 17:19:00,29.0,23.9,29.91,WNW,284,6.0,17.0,81,0.00,,---,0.00,VWS V14.01,2013-03-21 21:19:00,
2013-03-21 17:24:00,29.2,24.1,29.91,WNW,300,4.0,17.0,81,0.00,,---,0.00,VWS V14.01,2013-03-21 21:24:00,
2013-03-21 17:29:00,29.5,24.4,29.91,West,271,8.0,17.0,81,0.00,,---,0.00,VWS V14.01,2013-03-21 21:29:00,
2013-03-21 17:34:00,29.5,24.1,29.91,NW,326,3.0,17.0,80,0.00,,---,0.00,VWS V14.01,2013-03-21 21:34:00,
2013-03-21 17:39:00,29.5,24.1,29.91,West,276,7.0,17.0,80,0.00,,---,0.00,VWS V14.01,2013-03-21 21:39:00,
2013-03-21 17:44:00,29.4,23.7,29.91,West,262,6.0,17.0,79,0.00,,---,0.00,VWS V14.01,2013-03-21 21:44:00,
2013-03-21 17:50:00,29.4,23.7,29.91,WNW,294,4.0,17.0,79,0.00,,---,0.00,VWS V14.01,2013-03-21 21:50:00,
2013-03-21 17:55:00,29.2,23.5,29.91,West,269,11.0,17.0,79,0.00,,---,0.00,VWS V14.01,2013-03-21 21:55:00,
2013-03-21 18:00:00,29.2,23.5,29.92,West,281,11.0,17.0,79,0.00,,---,0.00,VWS V14.01,2013-03-21 22:00:00,
2013-03-21 18:05:00,29.0,23.6,29.92,WNW,293,4.0,13.0,80,0.00,,---,0.00,VWS V14.01,2013-03-21 22:05:00,
2013-03-21 18:10:00,29.0,23.3,29.92,NNW,330,8.0,18.0,79,0.00,,---,0.00,VWS V14.01,2013-03-21 22:10:00,
2013-03-21 18:15:00,29.2,23.2,29.92,WNW,283,3.0,18.0,78,0.00,,---,0.00,VWS V14.01,2013-03-21 22:15:00,
2013-03-21 18:20:00,29.3,23.3,29.92,NW,306,12.0,18.0,78,0.00,,---,0.00,VWS V14.01,2013-03-21 22:20:00,
2013-03-21 18:25:00,29.4,23.1,29.92,WNW,286,8.0,18.0,77,0.00,,---,0.00,VWS V14.01,2013-03-21 22:25:00,
2013-03-21 18:30:00,29.4,22.8,29.92,West,281,6.0,18.0,76,0.00,,---,0.00,VWS V14.01,2013-03-21 22:30:00,
2013-03-21 18:35:00,29.4,22.8,29.92,WNW,295,6.0,18.0,76,0.00,,---,0.00,VWS V14.01,2013-03-21 22:35:00,
2013-03-21 18:40:00,29.5,22.9,29.92,WNW,297,6.0,18.0,76,0.00,,---,0.00,VWS V14.01,2013-03-21 22:40:00,
2013-03-21 18:46:00,29.5,22.6,29.92,NW,304,4.0,18.0,75,0.00,,---,0.00,VWS V14.01,2013-03-21 22:46:00,
2013-03-21 18:51:00,29.5,22.6,29.92,NW,319,7.0,18.0,75,0.00,,---,0.00,VWS V14.01,2013-03-21 22:51:00,
2013-03-21 18:56:00,29.5,22.6,29.92,West,260,4.0,18.0,75,0.00,,---,0.00,VWS V14.01,2013-03-21 22:56:00,
2013-03-21 19:01:00,29.4,23.4,29.92,West,280,7.0,18.0,78,0.00,,---,0.00,VWS V14.01,2013-03-21 23:01:00,
2013-03-21 19:06:00,29.2,23.5,29.92,West,262,7.0,11.0,79,0.00,,---,0.00,VWS V14.01,2013-03-21 23:06:00,
2013-03-21 19:11:00,29.0,23.6,29.92,NW,306,8.0,12.0,80,0.00,,---,0.00,VWS V14.01,2013-03-21 23:11:00,
2013-03-21 19:17:00,28.9,23.2,29.92,WNW,286,5.0,16.0,79,0.00,,---,0.00,VWS V14.01,2013-03-21 23:17:00,
2013-03-21 19:22:00,28.9,23.2,29.92,WNW,295,6.0,16.0,79,0.00,,---,0.00,VWS V14.01,2013-03-21 23:22:00,
2013-03-21 19:27:00,28.8,23.4,29.92,WNW,295,6.0,16.0,80,0.00,,---,0.00,VWS V14.01,2013-03-21 23:27:00,
2013-03-21 19:32:00,28.7,23.6,29.92,NW,308,6.0,16.0,81,0.00,,---,0.00,VWS V14.01,2013-03-21 23:32:00,
2013-03-21 19:37:00,28.4,23.6,29.92,West,281,5.0,16.0,82,0.00,,---,0.00,VWS V14.01,2013-03-21 23:37:00,
2013-03-21 19:42:00,28.3,23.5,29.92,West,278,7.0,16.0,82,0.00,,---,0.00,VWS V14.01,2013-03-21 23:42:00,
2013-03-21 19:47:00,28.4,23.3,29.93,West,280,7.0,16.0,81,0.00,,---,0.00,VWS V14.01,2013-03-21 23:47:00,
2013-03-21 19:52:00,28.5,23.4,29.93,West,267,6.0,16.0,81,0.00,,---,0.00,VWS V14.01,2013-03-21 23:52:00,
2013-03-21 19:57:00,28.4,23.0,29.93,WNW,291,7.0,18.0,80,0.00,,---,0.00,VWS V14.01,2013-03-21 23:57:00,
2013-03-21 20:02:00,28.4,23.0,29.93,NW,315,7.0,10.0,80,0.00,,---,0.00,VWS V14.01,2013-03-22 00:02:00,
2013-03-21 20:07:00,28.3,23.2,29.93,West,264,6.0,10.0,81,0.00,,---,0.00,VWS V14.01,2013-03-22 00:07:00,
2013-03-21 20:13:00,28.2,23.1,29.93,NW,320,4.0,11.0,81,0.00,,---,0.00,VWS V14.01,2013-03-22 00:13:00,
2013-03-21 20:18:00,28.1,23.3,29.93,West,273,9.0,13.0,82,0.00,,---,0.00,VWS V14.01,2013-03-22 00:18:00,
2013-03-21 20:23:00,28.0,23.5,29.93,WNW,294,7.0,13.0,83,0.00,,---,0.00,VWS V14.01,2013-03-22 00:23:00,
2013-03-21 20:28:00,27.9,23.4,29.94,WNW,298,8.0,13.0,83,0.00,,---,0.00,VWS V14.01,2013-03-22 00:28:00,
2013-03-21 20:33:00,27.7,23.5,29.93,West,266,5.0,13.0,84,0.00,,---,0.00,VWS V14.01,2013-03-22 00:33:00,
2013-03-21 20:38:00,27.7,23.5,29.94,WNW,294,6.0,13.0,84,0.00,,---,0.00,VWS V14.01,2013-03-22 00:38:00,
2013-03-21 20:43:00,27.7,22.9,29.94,NW,326,5.0,14.0,82,0.00,,---,0.00,VWS V14.01,2013-03-22 00:43:00,
2013-03-21 20:48:00,27.7,22.4,29.93,WNW,295,5.0,14.0,80,0.00,,---,0.00,VWS V14.01,2013-03-22 00:48:00,
2013-03-21 20:53:00,27.7,22.4,29.94,NW,309,8.0,14.0,80,0.00,,---,0.00,VWS V14.01,2013-03-22 00:53:00,
2013-03-21 20:58:00,27.7,22.4,29.94,WNW,300,11.0,14.0,80,0.00,,---,0.00,VWS V14.01,2013-03-22 00:58:00,
2013-03-21 21:04:00,27.7,22.0,29.94,WNW,293,7.0,14.0,79,0.00,,---,0.00,VWS V14.01,2013-03-22 01:04:00,
2013-03-21 21:09:00,27.6,22.0,29.94,WNW,284,11.0,15.0,79,0.00,,---,0.00,VWS V14.01,2013-03-22 01:09:00,
2013-03-21 21:14:00,27.6,22.0,29.94,NW,322,8.0,15.0,79,0.00,,---,0.00,VWS V14.01,2013-03-22 01:14:00,
2013-03-21 21:19:00,27.5,22.1,29.94,WNW,302,7.0,15.0,80,0.00,,---,0.00,VWS V14.01,2013-03-22 01:19:00,
2013-03-21 21:24:00,27.5,21.9,29.94,NW,307,5.0,15.0,79,0.00,,---,0.00,VWS V14.01,2013-03-22 01:24:00,
2013-03-21 21:29:00,27.5,22.1,29.94,NNW,344,4.0,15.0,80,0.00,,---,0.00,VWS V14.01,2013-03-22 01:29:00,
2013-03-21 21:34:00,27.4,22.0,29.94,WNW,302,9.0,15.0,80,0.00,,---,0.00,VWS V14.01,2013-03-22 01:34:00,
2013-03-21 21:39:00,27.3,22.0,29.94,WNW,287,10.0,15.0,80,0.00,,---,0.00,VWS V14.01,2013-03-22 01:39:00,
2013-03-21 21:45:00,27.3,22.0,29.94,WNW,292,3.0,15.0,80,0.00,,---,0.00,VWS V14.01,2013-03-22 01:45:00,
2013-03-21 21:50:00,27.3,22.0,29.95,NNW,330,9.0,15.0,80,0.00,,---,0.00,VWS V14.01,2013-03-22 01:50:00,
2013-03-21 21:55:00,27.3,21.7,29.95,WNW,291,4.0,15.0,79,0.00,,---,0.00,VWS V14.01,2013-03-22 01:55:00,
2013-03-21 22:00:00,27.2,21.6,29.95,NW,316,8.0,15.0,79,0.00,,---,0.00,VWS V14.01,2013-03-22 02:00:00,
2013-03-21 22:05:00,27.2,21.3,29.95,NW,318,6.0,11.0,78,0.00,,---,0.00,VWS V14.01,2013-03-22 02:05:00,
2013-03-21 22:10:00,27.1,21.2,29.95,NW,316,10.0,14.0,78,0.00,,---,0.00,VWS V14.01,2013-03-22 02:10:00,
2013-03-21 22:15:00,27.1,21.8,29.95,WNW,301,10.0,14.0,80,0.00,,---,0.00,VWS V14.01,2013-03-22 02:15:00,
2013-03-21 22:20:00,26.9,21.9,29.95,WNW,300,6.0,14.0,81,0.00,,---,0.00,VWS V14.01,2013-03-22 02:20:00,
2013-03-21 22:25:00,26.9,21.9,29.95,WSW,250,3.0,14.0,81,0.00,,---,0.00,VWS V14.01,2013-03-22 02:25:00,
2013-03-21 22:30:00,26.8,21.2,29.95,NW,319,7.0,14.0,79,0.00,,---,0.00,VWS V14.01,2013-03-22 02:30:00,
2013-03-21 22:36:00,26.7,21.1,29.96,NW,309,4.0,15.0,79,0.00,,---,0.00,VWS V14.01,2013-03-22 02:36:00,
2013-03-21 22:41:00,26.7,20.8,29.96,West,277,4.0,15.0,78,0.00,,---,0.00,VWS V14.01,2013-03-22 02:41:00,
2013-03-21 22:46:00,26.6,20.7,29.96,WNW,294,8.0,15.0,78,0.00,,---,0.00,VWS V14.01,2013-03-22 02:46:00,
2013-03-21 22:52:00,26.6,21.0,29.96,NNW,333,5.0,15.0,79,0.00,,---,0.00,VWS V14.01,2013-03-22 02:52:00,
2013-03-21 22:57:00,26.5,20.6,29.96,West,280,5.0,15.0,78,0.00,,---,0.00,VWS V14.01,2013-03-22 02:57:00,
2013-03-21 23:02:00,26.4,20.5,29.96,WNW,290,7.0,7.0,78,0.00,,---,0.00,VWS V14.01,2013-03-22 03:02:00,
2013-03-21 23:07:00,26.4,20.5,29.96,WNW,282,5.0,9.0,78,0.00,,---,0.00,VWS V14.01,2013-03-22 03:07:00,
2013-03-21 23:12:00,26.4,20.5,29.96,WNW,288,9.0,9.0,78,0.00,,---,0.00,VWS V14.01,2013-03-22 03:12:00,
2013-03-21 23:17:00,26.4,20.2,29.96,WNW,293,2.0,11.0,77,0.00,,---,0.00,VWS V14.01,2013-03-22 03:17:00,
2013-03-21 23:22:00,26.4,20.2,29.97,WNW,288,8.0,12.0,77,0.00,,---,0.00,VWS V14.01,2013-03-22 03:22:00,
2013-03-21 23:27:00,26.3,20.1,29.97,WNW,298,5.0,14.0,77,0.00,,---,0.00,VWS V14.01,2013-03-22 03:27:00,
2013-03-21 23:32:00,26.3,20.1,29.96,WNW,295,6.0,15.0,77,0.00,,---,0.00,VWS V14.01,2013-03-22 03:32:00,
2013-03-21 23:38:00,26.3,19.8,29.97,WNW,282,8.0,15.0,76,0.00,,---,0.00,VWS V14.01,2013-03-22 03:38:00,
2013-03-21 23:43:00,26.3,19.8,29.97,West,280,6.0,15.0,76,0.00,,---,0.00,VWS V14.01,2013-03-22 03:43:00,
2013-03-21 23:48:00,26.3,19.8,29.96,West,278,5.0,15.0,76,0.00,,---,0.00,VWS V14.01,2013-03-22 03:48:00,
2013-03-21 23:53:00,26.3,19.8,29.96,NW,311,5.0,15.0,76,0.00,,---,0.00,VWS V14.01,2013-03-22 03:53:00,
2013-03-21 23:58:00,26.2,19.7,29.96,WNW,288,5.0,15.0,76,0.00,,---,0.00,VWS V14.01,2013-03-22 03:58:00,